www.pogodaiklimat.ru

Погода и климат >> Архив погоды >> Россия >> Ненецкий АО >> Имени Федорова


ПОГОДА в Имени Федорова

  • Прогноз погоды в Имени Федорова
  • Монитор погоды в Имени Федорова

АРХИВ ПОГОДЫ в Имени Федорова

Время (UTC), дата Ветер
(напр.,м/с)
 
Видим.   Явления Облачность Т
(С)
Тd
(С)
f
(%)
Тe
(С)
Тes
(С)
Комфортность P
(гПа)
Po
(гПа)
Тmin
(С)
Tmax
(С)
R
(мм)
R24
(мм)
S
(см)
12 17.01 В 14-17
{17}
4000 м метель 10/10 300 м
[Sc]
-8.1 -9.2 92 -20 -20 990.3 989.0
15 17.01 В 11-13
{18}
10 км сильный позёмок 10/10 300 м
[Sc]
-8.6 -9.1 96 -20 -20 987.4 986.1 -7.2
18 17.01 В 10-13
{14}
10 км сильный позёмок 10/10 300 м
[Sc]
-9.7 -10.4 95 -20 -20 986.2 984.8
21 17.01 В 10-14
{14}
4000 м слаб. снег {метель} 10/0 300 м
[As op]
-9.7 -10.5 94 -20 -20 985.8 984.4
00 18.01 В 9-12
{15}
2000 м снег {метель} 10/0
[As op]
-8.4 -8.9 96 -18 -18 986.1 984.8
03 18.01 СВ 8-11
{12}
4000 м слаб. снег {метель} 10/0 300 м
[As op]
-8.9 -10.7 87 -18 -18 986.5 985.1 -10.0 0.3 8
06 18.01 СВ 10-13
{13}
10 км сильный позёмок 9/9 300 м
[Sc]
-9.0 -10.9 86 -20 -20 986.5 985.1
09 18.01 СВ 10-13
{14}
2000 м слаб. ливневой снег {метель} 10/10 300 м
[Cb cap]
-9.5 -10.3 94 -20 -20 987.0 985.6
12 18.01 СВ 9-12
{16}
10 км сильный позёмок {ливн. осадки} 9/8 300 м
[Sc Ac trans]
-9.1 -11.9 80 -19 -19 988.5 987.1
15 18.01 С 10-13
{15}
2000 м слаб. ливневой снег {метель} 9/9 300 м
[Cb cap]
-9.1 -10.5 90 -20 -20 989.3 987.9 -8.8 0.4
18 18.01 С 9-12
{13}
10 км позёмок {ливн. осадки} 9/9 300 м
[Sc]
-9.2 -11.0 87 -19 -19 989.9 988.5
21 18.01 С 8-11
{12}
10 км позёмок 9/9 600 м
[Sc]
-7.8 -10.4 82 -17 -17 990.3 989.0
00 19.01 С 9-11
{11}
10 км позёмок 9/9 600 м
[Sc]
-8.2 -10.2 85 -18 -18 991.0 989.6
03 19.01 С 7
{11}
10 км позёмок 9/9 600 м
[Sc]
-7.8 -10.3 82 -17 -17 991.8 990.4 -9.9 8
06 19.01 С 3
{10}
10 км {метель} 9/0
[Ac trans]
-7.6 -11.9 71 -13 -13 992.0 990.7
09 19.01 ЮЗ 3 10 км 9/3 600 м
[Sc Ac trans]
-12.1 -14.2 84 -18 -18 993.0 991.7
12 19.01 ЮЗ 3 10 км 8/0
[Ac trans]
-12.7 -13.9 91 -19 -19 994.2 992.9
15 19.01 ЮЗ 3 10 км 10/0
[Ac und]
-8.5 -10.1 88 -14 -14 995.0 993.7 -7.2
18 19.01 Ю 5 10 км 9/0
[Ac trans]
-7.5 -8.7 91 -15 -15 994.8 993.4
21 19.01 С 2 10 км 9/0
[Ac trans]
-4.8 -5.5 95 -9 -9 995.9 994.6
00 20.01 СВ 4 20 км 9/9 300 м
[Sc]
-4.7 -6.5 87 -11 -11 998.5 997.2
03 20.01 СЗ 3 20 км 9/9 600 м
[Sc]
-5.3 -6.4 92 -11 -11 1000.3 999.0 -8.4 8
06 20.01 З 5 500 м переохл. туман ?/? -8.0 -8.2 98 -16 -16 1001.4 1000.0
09 20.01 ЮЗ 8
{10}
500 м переохл. туман 8/0
[Ac trans Ci fib]
-7.3 -7.4 99 -17 -17 1001.7 1000.3
12 20.01 З 8
{11}
10 км позёмок {туман} 9/0
[Ac trans]
-3.9 -6.0 85 -12 -12 1002.0 1000.6
15 20.01 З 7
{11}
20 км позёмок 3/0
[Ac trans]
-4.7 -7.8 79 -13 -13 1002.2 1000.8 -3.0
18 20.01 З 8-10
{11}
2000 м слаб. ливневой снег {метель} 9/9 600 м
[Cb cap]
-2.8 -4.2 90 -11 -11 1002.3 1001.0
21 20.01 ЮЗ 7
{11}
10 км позёмок {ливн. осадки} 8/0
[Ac trans]
-5.3 -6.7 90 -14 -14 1002.7 1001.4
00 21.01 ЮЗ 7 10 км {метель} 9/9 600 м
[Sc]
-4.9 -7.6 81 -13 -13 1002.7 1001.3
03 21.01 ЮЗ 7
{11}
10 км позёмок 6/6 600 м
[Sc]
-10.2 -10.7 96 -19 -19 1002.4 1001.0 -10.2 0.2 8
06 21.01 ЮЗ 8
{10}
4000 м дымка 8/0
[Ac trans Ci fib]
-10.4 -10.9 96 -20 -20 1001.9 1000.5 -10.4
09 21.01 ЮЗ 2 10 км 9/0
[Ac trans Ci fib]
-8.5 -8.8 98 -13 -13 1001.7 1000.3
12 21.01 ЮЗ 2 10 км 10/10 600 м
[Sc]
-9.2 -9.6 97 -14 -14 1001.0 999.6
15 21.01 Ю 5 10 км 10/10 600 м
[Sc]
-9.8 -10.2 97 -18 -18 1000.5 999.1 -7.2
18 21.01 Ю 4 10 км 10/10 600 м
[Sc]
-9.3 -9.8 96 -16 -16 1000.3 998.9
21 21.01 Ю 5 10 км 9/9 600 м
[Sc]
-10.7 -11.4 95 -19 -19 1000.2 998.8
00 22.01 ЮЗ 3 10 км 9/9 600 м
[Sc]
-11.5 -12.1 95 -17 -17 999.7 998.3
03 22.01 В 8-10
{10}
10 км позёмок {ливн. осадки} 9/9 600 м
[Sc]
-8.9 -9.9 92 -19 -19 999.0 997.6 -14.5 8
06 22.01 В 10-13
{13}
2000 м слаб. ливневой снег {метель} 10/10 300 м
[Cb cap]
-10.6 -11.3 95 -21 -21 998.3 996.9
09 22.01 В 10-13
{14}
2000 м слаб. ливневой снег {метель} 10/10 300 м
[Cb cap]
-12.7 -13.7 92 -24 -24 998.3 996.9
12 22.01 В 9-12
{14}
2000 м слаб. ливневой снег {метель} 10/10 300 м
[Cb cap]
-14.0 -15.7 87 -25 -25 998.5 997.1
15 22.01 В 8-11
{12}
2000 м слаб. ливневой снег {метель} 10/10 300 м
[Cb cap]
-13.6 -15.3 87 -24 -24 998.6 997.2 -8.6 0.5
18 22.01 В 9-11
{11}
2000 м слаб. ливневой снег {метель} 10/10 300 м
[Cb cap]
-13.4 -14.9 88 -24 -24 998.8 997.4
21 22.01 В 8-11
{11}
2000 м слаб. ливневой снег {метель} 9/9 300 м
[Cb cap]
-13.7 -15.0 90 -24 -24 999.7 998.3
00 23.01 В 7-10
{11}
2000 м слаб. ливневой снег {метель} 9/9 300 м
[Cb cap]
-13.8 -15.4 88 -24 -24 1000.8 999.4
03 23.01 Ю 8
{11}
2000 м слаб. ливневой снег {метель} 9/9 300 м
[Cb cap]
-15.4 -16.4 92 -26 -26 1002.0 1000.6 -15.6 0.8 9
06 23.01 Ю 7
{11}
4000 м позёмок {ливн. осадки} 8/0
[Ac trans]
-17.6 -18.8 90 -29 -29 1003.7 1002.3 -18.2
09 23.01 ЮВ 7-10
{10}
1000 м позёмок 10/10 200 м
[St]
-17.9 -19.2 90 -29 -29 1005.5 1004.1
12 23.01 Ю 7-10
{11}
1000 м позёмок 10/10 200 м
[St]
-20.1 -21.6 88 -32 -32 опасность
обморожения
1007.3 1005.8
15 23.01 Ю 5
{11}
1000 м позёмок 10/10 200 м
[St]
-17.8 -19.1 90 -27 -27 1008.5 1007.1 -15.4 0.0
18 23.01 Ю 7
{11}
10 км позёмок 10/10 300 м
[Sc]
-18.0 -19.3 90 -29 -29 1010.2 1008.8
21 23.01 ЮВ 10-13
{14}
4000 м метель 9/9 300 м
[Sc]
-14.9 -15.9 92 -27 -27 1012.1 1010.6
00 24.01 ЮВ 10-13
{13}
4000 м метель 10/10 300 м
[Sc]
-14.7 -15.7 92 -27 -27 1013.7 1012.2
03 24.01 ЮВ 9-12
{13}
10 км сильный позёмок 9/9 300 м
[Sc]
-15.7 -16.8 91 -27 -27 1014.9 1013.5 -18.3 8
06 24.01 В 9-12
{12}
10 км сильный позёмок 10/10 300 м
[Sc]
-16.2 -17.3 91 -28 -28 1016.3 1014.9
09 24.01 ЮВ 7
{12}
10 км позёмок 9/9 300 м
[Sc]
-16.6 -17.8 90 -27 -27 1017.7 1016.3

 

Местоположение метеостанции Имени Федорова (Ненецкий АО, Россия): широта 70.45 долгота 59.08 высота над уровнем моря 12 м.

В архиве по умолчанию представлена погода в Имени Федорова за последнюю неделю. Архивные данные за месяц целиком и за предыдущие месяцы, начиная с января 2011 года, Вы можете получить, выбрав интересующий диапазон дат из раскрывающегося списка и нажав кнопку "Ввод!".


*Определитесь, кто Вы:
робот инопланетянин человек

Внимание! Время в таблицах - всемирное. Для получения местного времени необходимо прибавить поправку, которая равна 3 ч.

Смотрите также архив погоды в соседних городах и на ближайших метеорологических станциях:

Погода на Мысе Белый Нос (Ненецкий АО, Россия) (104 км)
Погода в Амдерме (Ненецкий АО, Россия) (124 км)
Погода в Варандее (Ненецкий АО, Россия) (186 км)
Погода на Мысе Константиновском (Ненецкий АО, Россия) (253 км)
Погода в Усть-Каре (Ненецкий АО, Россия) (261 км)
Погода в Ходоварихе (Ненецкий АО, Россия) (266 км)
Погода в Марресале (Ямало-Ненецкий АО, Россия) (304 км)
Погода в Малых Кармакулах (Архангельская область, Россия) (310 км)
Погода в Хорей-Вере (Ненецкий АО, Россия) (339 км)
Погода в Сенгейском Шаре (Ненецкий АО, Россия) (376 км)

Пояснения к столбцам:

Ветер - указаны скорость ветра в м/с - средняя за 10 мин, порывы в срок и между сроками (в фигурных скобках) и направление, откуда дует ветер: С - северный, СВ - северо-восточный, В - восточный, ЮВ - юго-восточный, Ю - южный, ЮЗ - юго-западный, З - западный, СЗ - северо-западный.
Видимость - горизонтальная дальность видимости в метрах или километрах. При видимости от 1 до 10 км при отсутствии осадков обычно наблюдается дымка, при ухудшении видимости до 1 км и менее - туман. В сухую погоду видимость может ухудшаться дымом, пылью или мглою.
Явления - указаны атмосферные явления, наблюдавшиеся в срок или в последний час перед сроком; фигурными скобками обозначены явления, наблюдавшиеся между сроками (за 1-3 часа до срока); квадратными скобками обозначены град или гололедные отложения с указанием их диаметра в мм.
Облачность - указаны через наклонную черту общая и нижняя облачность в баллах и высота нижней границы облаков в метрах; квадратными скобками обозначены формы облаков: Ci - перистые, Cs - перисто-слоистые, Cc - перисто-кучевые, Ac - высококучевые, As - высокослоистые, Sc - слоисто-кучевые, Ns - слоисто-дождевые, Cu - кучевые, Cb - кучево-дождевые. Подробнее классификацию облаков см. в Атласе облаков (PDF).
T - Температура воздуха - температура, измеренная на высоте 2 м над землей.
Td - Температура точки росы - температура, при понижении до которой содержащийся в воздухе водяной пар достигнет насыщения.
f - Относительная влажность воздуха - влажноcть воздуха, измеренная на высоте 2 м над землей.
Te - Эффективная температура - температура, которую ощущает одетый по сезону человек в тени. Характеристика душности погоды. При расчете учитывается влияние влажности воздуха и скорости ветра на теплоощущения человека.
Tes - Эффективная температура на солнце - температура, которую ощущает человек, с поправкой на солнечный нагрев. Характеристика знойности погоды. Зависит от высоты солнца над горизонтом, облачности и скорости ветра. Ночью, в пасмурную погоду, а также при ветре 12 м/с и более поправка равна нулю.
P - Атмосферное давление - приведенное к уровню моря атмосферное давление.
Po - Атмосферное давление - измеренное на уровне метеостанции атмосферное давление.
Tmin - Минимальная температура - минимум температуры воздуха на высоте 2 м над землей.
Tmax - Максимальная температура - максимум температуры воздуха на высоте 2 м над землей.
R - Количество осадков - Количество выпавших осадков за период времени, мм. При наведении курсора мыши на число - период времени, за который выпало указанное количество осадков.
R24 - Количество осадков - Количество выпавших осадков за 24 часа, мм.
S - Снежный покров - Высота снежного покрова, см. При наведении курсора мыши на число - состояние снежного покрова и степень покрытия местности в баллах.